Flag for Netherlands Weather past 2 weeks in Kralendijk (Bonaire), Netherlands

Now
90 °F

Hot.


Feels Like: 103 °F
Forecast: 83 / 89 °F
Wind: 18 mph from East

Location: Flamingo Airport - Bonaire

Current Time: Sep 1, 2014 at 11:47:52 AM

Latest Report: Sep 1, 2014 at 11:00 AM


Visibility: N/A

Pressure: 29.95 "Hg

Humidity: 67%

Dew point: 77 °F

Location of Kralendijk (Bonaire)Location

Historic Weather in Kralendijk (Bonaire) — Graph

°F

Kralendijk (Bonaire) temperature yesterday

Maximum temperature yesterday: 90 °F (at 1:00 PM)
Minimum temperature yesterday: 81 °F (at 1:00 AM)
Average temperature yesterday: 85 °F

Past Weeks' High & Low Weather Summary

 TemperatureHumidityPressure
High91 °F (Aug 22, 1:00 PM)94% (Aug 28, 7:00 AM)30.01 "Hg (Aug 28, 7:00 AM)
Low79 °F (Aug 19, 5:55 AM)55% (Aug 21, 1:00 PM)29.74 "Hg (Aug 22, 3:00 PM)
Average85 °F75%29.88 "Hg
* Reported Aug 17 10:00 AM — Sep 1 10:00 AM, Kralendijk (Bonaire), Weather by CustomWeather, © 2014

Note: Actual official high and low records may vary slightly from our data, if they occured in-between our weather recording intervals... More about our weather records

Advertising

Kralendijk (Bonaire) weather history for previous 24 hours

 ConditionsComfort  
Time TempWeatherWind HumidityBarometerVisibility
10:00 AM
Sep 1
88 °FScattered clouds.20 mph70%29.95 "HgN/A
9:00 AM86 °FScattered clouds.18 mph75%29.95 "HgN/A
8:00 AM84 °FWarm.17 mph79%29.92 "HgN/A
7:00 AM82 °FWarm.13 mph84%29.89 "HgN/A
5:00 AM82 °FWarm.15 mph84%29.89 "HgN/A
3:00 AM82 °FWarm.17 mph79%29.89 "HgN/A
1:00 AM82 °FWarm.17 mph79%29.92 "HgN/A
12:00 AM82 °FWarm.16 mph84%29.92 "HgN/A
8:00 PM
Aug 31
82 °FPassing clouds.18 mph79%29.89 "HgN/A
6:00 PM84 °FScattered clouds.16 mph74%29.89 "HgN/A
5:00 PM86 °FScattered clouds.20 mph70%29.86 "HgN/A
4:00 PM86 °FScattered clouds.18 mph70%29.89 "HgN/A
3:00 PM90 °FScattered clouds.17 mph63%29.89 "HgN/A
2:00 PM90 °FHot.17 mph67%29.92 "HgN/A
1:00 PM90 °FScattered clouds.21 mph67%29.95 "HgN/A
12:00 PM88 °FPartly sunny.18 mph66%29.95 "HgN/A
11:00 AM88 °FWarm.20 mph66%29.98 "HgN/A
Weather by CustomWeather, © 2014

See weather overviewHow to use our weather pages